Showing default

COSMOS 2453, 35500

Orbit data source: Space-Track

COSMOS 2453, 35500 is a payload satellite owned by KVR (CIS) in LEO that was launched on Mon, 06 Jul 2009 UTC via an ROKOT launch vehicle from the Plesetsk Missile And Space Complex (PKMTR). Payloads include a variety of satellites, spacecraft, and rockets equipped with specific instruments for various scientific and technological missions. These include communications satellites like Starlink; space stations such as the ISS; scientific satellites like the Hubble; Earth observation satellites from companies like Planet Labs, Umbra, and HawkEye 360; GPS; miniature CubeSats for education and research; and military/defense satellites.

Loading next visibility...
COSMOS 2453 details
Identifier
35500, 2009-036C
Orbit
LEO
Last TLE update7 hours ago
Origin
Flag of CISKVR (CIS)
ManufacturerResehetnev ISS
MissionOperational Defense Communications
Bus & MotorSTRELA-3, Unknown motor
Mass225 kg wet, 225 kg dry
Launch date (UTC)
2009-07-06 (15 years ago)
Launch vehicle
ROKOT
Launch site
Plesetsk Missile And Space Complex (PKMTR)
Object type
Payload
Rocket body
Debris
Shape & HBRCyl + 1 Ant, 7 m
Radar Cross Section1.583 m², Medium (>0.1 m² and < 1m²)

Expand to show TLE details & history

TLE from 7 hours ago
0 COSMOS 2453
1 35500U 09036C   24361.55782921  .00000024  00000-0  10150-3 0  9992
2 35500  82.4884  61.8870 0006166 251.4030 108.6379 12.41504633701262
Epoch: 2024-12-26T13:23Z
Definitive object data (Epoch: 2024-12-26T13:23:16.443Z)
Latitude-0.00007°
Longitude125.53297°
Altitude1,504.484 km
Speed7.112 km/s
True Right ascension04h 07m 32s
True Declination0° 00' 00"
Sunlit
Object was in full shadow at TLE epoch
Visualization TLE readout
Latitude-78.50887°
Longitude-14.45365°
Altitude1,523.334 km
Speed7.106 km/s
Apparent Right ascension08h 30m 37s
Apparent Declination-73° 47' 10"
Sunlit
Object is in daylight
Visualization observer readout
Local Sidereal Time19:58:26
Azimuth184° SSW
Elevation-55.914°
Doppler factor1
Orbital elements
Apogee altitude1,502.441 km
Perigee altitude1,492.729 km
Semi-major axis7,875.722 km
Eccentricity0.0006166
Inclination82.4884°
RAAN61.887°
Arg. of periapsis251.403°
True anomaly108.70484°
Mean anomaly108.6379°
Eccentric anomaly108.67137°
Mean motion3.10533 °/min
BSTAR0.0001015
Orbital period115.93 mins
Loading maneuver chart data...
Loading historical data...
Loading historical data...
Loading historical data...
Loading historical data...
Loading historical data...
Loading historical data...
Loading historical data...
Other satellites on launch #36 in the year 2009 (2009-07-06 UTC)

COSMOS 2453 Visibility forecast

Observer location: undefined°, undefined

Span
Click to sort rows by Start time (UTC) header in descending order
Start Az.
Max El. time (UTC)
Max El. Az.
Max El.
End time (UTC)
End Az.
9 mins2024-12-27 03:04:34.962Z108.761° ESE2024-12-27 03:08:34.962Z80.185° E15.759°2024-12-27 03:13:34.962Z44.021° NE
15 mins2024-12-27 04:57:34.962Z183.795° SSW2024-12-27 05:04:34.962Z99.987° ESE44.976°2024-12-27 05:12:34.962Z8.374° NNE
10 mins2024-12-27 06:58:34.962Z264.167° W2024-12-27 07:02:34.962Z295.409° NW18.258°2024-12-27 07:08:34.962Z339.4° N
14 mins2024-12-27 15:09:34.962Z9.757° NNE2024-12-27 15:16:34.962Z80.519° E34.24°2024-12-27 15:23:34.962Z141.174° SSE
14 mins2024-12-27 17:06:34.962Z333.594° NNW2024-12-27 17:12:34.962Z280.165° WNW32.982°2024-12-27 17:20:34.962Z208.953° SW
|